H1 CPF 2 NER 2025 3 5 9 064 01 glonass133 H2 1403201 9133 40001 2025 3 5 0 0 0 2025 3 8 23 45 0 900 1 1 0 0 0 1 H9 10 0 60739 0.00000 0 23289659.766 -8392646.507 6105537.646 10 0 60739 900.00000 0 23778252.099 -8724352.673 2931406.204 10 0 60739 1800.00000 0 23868606.743 -8961715.464 -299746.954 10 0 60739 2700.00000 0 23575364.949 -9049746.440 -3525069.753 10 0 60739 3600.00000 0 22925903.669 -8938491.561 -6681825.267 10 0 60739 4500.00000 0 21959102.109 -8585381.903 -9708618.909 10 0 60739 5400.00000 0 20723642.908 -7957278.330 -12546598.479 10 0 60739 6300.00000 0 19275920.303 -7032122.585 -15140602.954 10 0 60739 7200.00000 0 17677644.239 -5800124.093 -17440237.151 10 0 60739 8100.00000 0 15993241.935 -4264431.579 -19400851.083 10 0 60739 9000.00000 0 14287166.693 -2441260.454 -20984405.080 10 0 60739 9900.00000 0 12621227.254 -359470.008 -22160204.147 10 0 60739 10800.00000 0 11052049.647 1940392.497 -22905487.937 10 0 60739 11700.00000 0 9628777.502 4407541.408 -23205865.574 10 0 60739 12600.00000 0 8391106.404 6982835.974 -23055587.692 10 0 60739 13500.00000 0 7367733.529 9601019.457 -22457651.146 10 0 60739 14400.00000 0 6575286.217 12193221.524 -21423734.958 10 0 60739 15300.00000 0 6017773.030 14689620.480 -19973969.182 10 0 60739 16200.00000 0 5686578.917 17022155.421 -18136541.351 10 0 60739 17100.00000 0 5561003.447 19127176.300 -15947148.154 10 0 60739 18000.00000 0 5609318.426 20947922.406 -13448302.792 10 0 60739 18900.00000 0 5790299.541 22436726.833 -10688511.199 10 0 60739 19800.00000 0 6055166.891 23556855.808 -7721332.743 10 0 60739 20700.00000 0 6349852.157 24283906.768 -4604343.344 10 0 60739 21600.00000 0 6617496.459 24606707.422 -1398020.868 10 0 60739 22500.00000 0 6801073.206 24527678.724 1835425.772 10 0 60739 23400.00000 0 6846024.968 24062647.018 5033261.156 10 0 60739 24300.00000 0 6702802.735 23240113.599 8133438.206 10 0 60739 25200.00000 0 6329199.992 22100012.577 11075799.804 10 0 60739 26100.00000 0 5692382.586 20692009.272 13803243.844 10 0 60739 27000.00000 0 4770528.118 19073410.547 16262829.214 10 0 60739 27900.00000 0 3554004.897 17306774.547 18406801.404 10 0 60739 28800.00000 0 2046039.759 15457319.835 20193518.004 10 0 60739 29700.00000 0 262845.371 13590242.076 21588256.444 10 0 60739 30600.00000 0 -1766799.829 11768050.174 22563888.554 10 0 60739 31500.00000 0 -4002503.101 10048032.847 23101409.065 10 0 60739 32400.00000 0 -6393702.212 8479961.077 23190307.912 10 0 60739 33300.00000 0 -8881544.963 7104122.005 22828779.078 10 0 60739 34200.00000 0 -11401126.571 5949766.050 22023761.656 10 0 60739 35100.00000 0 -13883993.009 5034031.796 20790811.925 10 0 60739 36000.00000 0 -16260807.119 4361393.307 19153808.302 10 0 60739 36900.00000 0 -18464067.077 3923652.711 17144494.189 10 0 60739 37800.00000 0 -20430764.332 3700478.073 14801866.860 10 0 60739 38700.00000 0 -22104870.200 3660463.563 12171423.561 10 0 60739 39600.00000 0 -23439547.084 3762666.898 9304278.987 10 0 60739 40500.00000 0 -24398991.531 3958558.677 6256171.006 10 0 60739 41400.00000 0 -24959831.581 4194300.611 3086373.951 10 0 60739 42300.00000 0 -25112019.455 4413255.501 -143459.024 10 0 60739 43200.00000 0 -24859181.969 4558621.733 -3370501.441 10 0 60739 44100.00000 0 -24218413.932 4576079.679 -6531982.622 10 0 60739 45000.00000 0 -23219523.511 4416336.749 -9566415.583 10 0 60739 45900.00000 0 -21903761.755 4037462.191 -12414798.939 10 0 60739 46800.00000 0 -20322090.372 3406911.746 -15021768.687 10 0 60739 47700.00000 0 -18533061.313 2503155.583 -17336676.889 10 0 60739 48600.00000 0 -16600397.937 1316839.916 -19314576.020 10 0 60739 49500.00000 0 -14590379.849 -148567.414 -20917089.934 10 0 60739 50400.00000 0 -12569141.402 -1876675.175 -22113154.822 10 0 60739 51300.00000 0 -10599997.023 -3838615.686 -22879616.377 10 0 60739 52200.00000 0 -8740904.948 -5994022.279 -23201672.300 10 0 60739 53100.00000 0 -7042174.727 -8292496.944 -23073152.326 10 0 60739 54000.00000 0 -5544513.311 -10675507.455 -22496631.090 10 0 60739 54900.00000 0 -4277490.041 -13078635.493 -21483372.239 10 0 60739 55800.00000 0 -3258483.298 -15434082.717 -20053105.306 10 0 60739 56700.00000 0 -2492151.295 -17673331.097 -18233639.877 10 0 60739 57600.00000 0 -1970447.667 -19729847.431 -16060324.536 10 0 60739 58500.00000 0 -1673179.795 -21541720.038 -13575360.943 10 0 60739 59400.00000 0 -1569085.182 -23054118.351 -10826986.045 10 0 60739 60300.00000 0 -1617379.608 -24221473.406 -7868537.971 10 0 60739 61200.00000 0 -1769711.100 -25009288.655 -4757423.435 10 0 60739 62100.00000 0 -1972436.728 -25395505.845 -1554006.388 10 0 60739 63000.00000 0 -2169125.740 -25371369.138 1679560.666 10 0 60739 63900.00000 0 -2303182.986 -24941751.555 4880540.119 10 0 60739 64800.00000 0 -2320481.526 -24124930.202 7986824.139 10 0 60739 65700.00000 0 -2171892.907 -22951819.778 10938137.449 10 0 60739 66600.00000 0 -1815607.849 -21464696.454 13677204.651 10 0 60739 67500.00000 0 -1219148.889 -19715465.457 16150859.517 10 0 60739 68400.00000 0 -360989.446 -17763544.674 18311074.925 10 0 60739 69300.00000 0 768289.813 -15673452.531 20115893.595 10 0 60739 70200.00000 0 2165357.009 -13512200.582 21530241.887 10 0 60739 71100.00000 0 3814025.904 -11346599.249 22526611.143 10 0 60739 72000.00000 0 5685699.362 -9240588.686 23085593.538 10 0 60739 72900.00000 0 7740342.498 -7252705.566 23196262.192 10 0 60739 73800.00000 0 9927946.477 -5433790.891 22856388.099 10 0 60739 74700.00000 0 12190423.406 -3825033.930 22072489.428 10 0 60739 75600.00000 0 14463854.643 -2456433.389 20859711.788 10 0 60739 76500.00000 0 16680999.928 -1345739.603 19241541.194 10 0 60739 77400.00000 0 18773963.433 -497921.526 17249354.577 10 0 60739 78300.00000 0 20676905.970 94819.626 14921815.838 10 0 60739 79200.00000 0 22328690.213 452491.176 12304128.466 10 0 60739 80100.00000 0 23675348.114 606228.290 9447158.781 10 0 60739 81000.00000 0 24672266.854 596737.957 6406446.525 10 0 60739 81900.00000 0 25286001.172 472334.097 3241122.058 10 0 60739 82800.00000 0 25495635.432 286647.678 12751.541 10 0 60739 83700.00000 0 25293637.779 96109.785 -3215866.829 10 0 60739 84600.00000 0 24686170.131 -42684.728 -6381931.381 10 0 60739 85500.00000 0 23692840.890 -75620.170 -9423865.471 10 0 60740 0.00000 0 22345911.020 46403.542 -12282520.916 10 0 60740 900.00000 0 20688986.428 365149.491 -14902333.696 10 0 60740 1800.00000 0 18775253.946 913036.374 -17232405.066 10 0 60740 2700.00000 0 16665333.067 1711531.018 -19227491.936 10 0 60740 3600.00000 0 14424835.736 2770009.178 -20848883.403 10 0 60740 4500.00000 0 12121736.031 4085133.230 -22065148.310 10 0 60740 5400.00000 0 9823659.963 5640773.425 -22852739.607 10 0 60740 6300.00000 0 7595208.360 7408476.446 -23196444.507 10 0 60740 7200.00000 0 5495424.055 9348462.104 -23089672.479 10 0 60740 8100.00000 0 3575508.109 11411106.917 -22534576.241 10 0 60740 9000.00000 0 1876879.114 13538853.144 -21542003.998 10 0 60740 9900.00000 0 429655.105 15668464.087 -20131284.315 10 0 60740 10800.00000 0 -748380.142 17733532.187 -18329847.997 10 0 60740 11700.00000 0 -1652284.905 19667135.892 -16172694.318 10 0 60740 12600.00000 0 -2289921.724 21404534.985 -13701711.821 10 0 60740 13500.00000 0 -2681377.125 22885792.451 -10964866.558 10 0 60740 14400.00000 0 -2857864.505 24058213.776 -8015273.212 10 0 60740 15300.00000 0 -2860157.394 24878502.108 -4910166.808 10 0 60740 16200.00000 0 -2736619.935 25314539.358 -1709794.694 10 0 60740 17100.00000 0 -2540918.266 25346718.842 1523749.889 10 0 60740 18000.00000 0 -2329509.883 24968773.685 4727730.090 10 0 60740 18900.00000 0 -2159017.391 24188066.210 7839980.302 10 0 60740 19800.00000 0 -2083597.865 23025326.053 10800110.031 10 0 60740 20700.00000 0 -2152419.259 21513847.736 13550673.434 10 0 60740 21600.00000 0 -2407350.782 19698180.956 16038281.876 10 0 60740 22500.00000 0 -2880965.143 17632367.992 18214638.150 10 0 60740 23400.00000 0 -3594937.542 15377801.438 20037472.408 10 0 60740 24300.00000 0 -4558909.619 13000791.165 21471361.984 10 0 60740 25200.00000 0 -5769867.197 10569941.423 22488419.456 10 0 60740 26100.00000 0 -7212059.186 8153446.782 23068835.801 10 0 60740 27000.00000 0 -8857462.471 5816418.921 23201268.252 10 0 60740 27900.00000 0 -10666774.837 3618354.913 22883065.255 10 0 60740 28800.00000 0 -12590895.875 1610851.820 22120323.945 10 0 60740 29700.00000 0 -14572835.403 -164337.769 20927778.583 10 0 60740 30600.00000 0 -16549970.839 -1676828.792 19328521.518 10 0 60740 31500.00000 0 -18456560.143 -2908642.299 17353561.383 10 0 60740 32400.00000 0 -20226405.821 -3854716.698 15041226.362 10 0 60740 33300.00000 0 -21795558.826 -4522870.842 12436423.423 10 0 60740 34200.00000 0 -23104948.965 -4933221.121 9589767.406 10 0 60740 35100.00000 0 -24102831.175 -5117077.817 6556596.610 10 0 60740 36000.00000 0 -24746944.398 -5115368.038 3395893.987 10 0 60740 36900.00000 0 -25006291.626 -4976652.750 169135.263 10 0 60740 37800.00000 0 -24862465.581 -4754822.774 -3060913.034 10 0 60740 38700.00000 0 -24310463.636 -4506572.376 -6231421.520 10 0 60740 39600.00000 0 -23358957.236 -4288758.593 -9280727.017 10 0 60740 40500.00000 0 -22030004.265 -4155759.264 -12149537.970 10 0 60740 41400.00000 0 -20358216.410 -4156942.738 -14782092.001 10 0 60740 42300.00000 0 -18389416.714 -4334357.246 -17127242.481 10 0 60740 43200.00000 0 -16178843.912 -4720738.430 -19139452.747 10 0 60740 44100.00000 0 -13788979.113 -5337919.767 -20779678.665 10 0 60740 45000.00000 0 -11287086.032 -6195713.384 -22016122.702 10 0 60740 45900.00000 0 -8742567.631 -7291308.704 -22824845.434 10 0 60740 46800.00000 0 -6224249.276 -8609214.501 -23190223.354 10 0 60740 47700.00000 0 -3797701.233 -10121747.036 -23105244.851 10 0 60740 48600.00000 0 -1522711.244 -11790044.100 -22571639.391 10 0 60740 49500.00000 0 548988.683 -13565562.860 -21599837.962 10 0 60740 50400.00000 0 2375647.899 -15391999.247 -20208766.040 10 0 60740 51300.00000 0 3926996.470 -17207549.092 -18425473.260 10 0 60740 52200.00000 0 5185257.375 -18947417.013 -16284607.019 10 0 60740 53100.00000 0 6145630.918 -20546468.625 -13827740.059 10 0 60740 54000.00000 0 6816232.715 -21941915.646 -11102564.819 10 0 60740 54900.00000 0 7217489.314 -23075921.930 -8161969.821 10 0 60740 55800.00000 0 7381018.130 -23898021.596 -5063015.746 10 0 60740 56700.00000 0 7348039.842 -24367248.113 -1865830.779 10 0 60740 57600.00000 0 7167390.994 -24453885.150 1367553.534 10 0 60740 58500.00000 0 6893221.233 -24140765.658 4574403.394 10 0 60740 59400.00000 0 6582472.840 -23424064.508 7692497.551 10 0 60740 60300.00000 0 6292249.329 -22313551.076 10661332.270 10 0 60740 61200.00000 0 6077184.504 -20832290.783 13423293.049 10 0 60740 62100.00000 0 5986923.306 -19015807.518 15924770.447 10 0 60740 63000.00000 0 6063821.047 -16910741.369 18117198.548 10 0 60740 63900.00000 0 6340958.429 -14573057.064 19957996.057 10 0 60740 64800.00000 0 6840556.517 -12065877.175 21411392.119 10 0 60740 65700.00000 0 7572859.045 -9457029.583 22449121.076 10 0 60740 66600.00000 0 8535529.996 -6816410.614 23050972.914 10 0 60740 67500.00000 0 9713592.801 -4213272.748 23205188.851 10 0 60740 68400.00000 0 11079914.990 -1713548.938 22908694.346 10 0 60740 69300.00000 0 12596219.292 622675.863 22167164.781 10 0 60740 70200.00000 0 14214580.130 2743441.470 20994922.090 10 0 60740 71100.00000 0 15879344.065 4606843.354 19414663.761 10 0 60740 72000.00000 0 17529394.726 6182537.717 17457028.742 10 0 60740 72900.00000 0 19100668.028 7452758.488 15160007.941 10 0 60740 73800.00000 0 20528812.620 8412804.288 12568210.085 10 0 60740 74700.00000 0 21751883.905 9070975.552 9731996.656 10 0 60740 75600.00000 0 22712958.201 9447965.157 6706502.474 10 0 60740 76500.00000 0 23362556.542 9575729.026 3550560.904 10 0 60740 77400.00000 0 23660775.382 9495885.230 325554.927 10 0 60740 78300.00000 0 23579033.627 9257710.250 -2905782.992 10 0 60740 79200.00000 0 23101361.624 8915818.232 -6080598.162 10 0 60740 80100.00000 0 22225177.047 8527622.616 -9137143.233 10 0 60740 81000.00000 0 20961514.497 8150688.752 -12015985.276 10 0 60740 81900.00000 0 19334698.784 7840090.610 -14661166.137 10 0 60740 82800.00000 0 17381475.463 7645884.408 -17021292.898 10 0 60740 83700.00000 0 15149635.117 7610806.677 -19050536.970 10 0 60740 84600.00000 0 12696189.108 7768294.558 -20709522.424 10 0 60740 85500.00000 0 10085173.196 8140912.172 -21966086.597 10 0 60741 0.00000 0 7385171.017 8739249.487 -22795898.697 10 0 60741 900.00000 0 4666659.048 9561340.396 -23182925.500 10 0 60741 1800.00000 0 1999286.894 10592623.648 -23119734.840 10 0 60741 2700.00000 0 -550799.419 11806449.295 -22607633.248 10 0 60741 3600.00000 0 -2923477.153 13165108.792 -21656634.486 10 0 60741 4500.00000 0 -5066907.407 14621345.956 -20285260.543 10 0 60741 5400.00000 0 -6939443.606 16120285.723 -18520179.096 10 0 60741 6300.00000 0 -8511110.008 17601700.244 -16395684.492 10 0 60741 7200.00000 0 -9764590.183 19002517.742 -13953032.156 10 0 60741 8100.00000 0 -10695685.788 20259469.387 -11239639.082 10 0 60741 9000.00000 0 -11313227.983 21311763.555 -8308165.553 10 0 60741 9900.00000 0 -11638446.565 22103675.536 -5215495.637 10 0 60741 10800.00000 0 -11703824.521 22586944.128 -2021635.930 10 0 60741 11700.00000 0 -11551487.161 22722874.498 1211446.250 10 0 60741 12600.00000 0 -11231194.472 22484058.826 4421022.754 10 0 60741 13500.00000 0 -10798021.891 21855642.159 7544819.334 10 0 60741 14400.00000 0 -10309827.781 20836079.872 10522221.665 10 0 60741 15300.00000 0 -9824614.741 19437354.355 13295449.220 10 0 60741 16200.00000 0 -9397896.319 17684641.118 15810674.328 10 0 60741 17100.00000 0 -9080180.343 15615437.438 18019064.836 10 0 60741 18000.00000 0 -8914675.179 13278189.105 19877730.347 10 0 60741 18900.00000 0 -8935315.769 10730471.572 21350553.972 10 0 60741 19800.00000 0 -9165192.946 8036800.358 22408893.722 10 0 60741 20700.00000 0 -9615452.582 5266160.862 23032140.187 10 0 60741 21600.00000 0 -10284711.571 2489359.365 23208119.791 10 0 60741 22500.00000 0 -11159016.014 -223695.618 22933335.790 10 0 60741 23400.00000 0 -12212344.405 -2806669.449 22213042.084 10 0 60741 24300.00000 0 -13407635.733 -5199324.494 21061148.012 10 0 60741 25200.00000 0 -14698300.451 -7349785.981 19499955.366 10 0 60741 26100.00000 0 -16030151.814 -9216456.807 17559732.005 10 0 60741 27000.00000 0 -17343677.237 -10769501.985 15278129.642 10 0 60741 27900.00000 0 -18576554.704 -11991841.245 12699456.359 10 0 60741 28800.00000 0 -19666308.544 -12879608.740 9873817.506 10 0 60741 29700.00000 0 -20552992.615 -13442061.226 6856141.345 10 0 60741 30600.00000 0 -21181787.385 -13700939.243 3705108.373 10 0 60741 31500.00000 0 -21505400.704 -13689309.058 482005.436 10 0 60741 32400.00000 0 -21486170.119 -13449935.175 -2750472.498 10 0 60741 33300.00000 0 -21097777.122 -13033253.230 -5929448.858 10 0 60741 34200.00000 0 -20326500.107 -12495030.103 -8993095.483 10 0 60741 35100.00000 0 -19171952.412 -11893811.385 -11881841.317 10 0 60741 36000.00000 0 -17647273.722 -11288265.236 -14539535.501 10 0 60741 36900.00000 0 -15778766.326 -10734535.916 -16914541.642 10 0 60741 37800.00000 0 -13604991.213 -10283719.590 -18960741.683 10 0 60741 38700.00000 0 -11175361.705 -9979569.462 -20638429.909 10 0 60741 39600.00000 0 -8548293.398 -9856527.333 -21915079.981 10 0 60741 40500.00000 0 -5788987.521 -9938164.508 -22765970.685 10 0 60741 41400.00000 0 -2966939.901 -10236097.528 -23174658.969 10 0 60741 42300.00000 0 -153278.889 -10749424.036 -23133291.848 10 0 60741 43200.00000 0 2581957.648 -11464702.149 -22642751.893 10 0 60741 44100.00000 0 5172493.944 -12356473.953 -21712634.095 10 0 60741 45000.00000 0 7558326.520 -13388310.943 -20361054.988 10 0 60741 45900.00000 0 9687969.890 -14514337.481 -18614297.986 10 0 60741 46800.00000 0 11520345.727 -15681168.446 -16506301.795 10 0 60741 47700.00000 0 13026238.280 -16830179.883 -14078001.711 10 0 60741 48600.00000 0 14189256.849 -17900017.569 -11376536.302 10 0 60741 49500.00000 0 15006266.580 -18829238.380 -8454334.507 10 0 60741 50400.00000 0 15487270.880 -19558973.625 -5368100.598 10 0 60741 51300.00000 0 15654751.658 -20035502.510 -2177716.407 10 0 60741 52200.00000 0 15542496.122 -20212627.462 1054918.089 10 0 60741 53100.00000 0 15193960.348 -20053751.236 4267083.359 10 0 60741 54000.00000 0 14660239.188 -19533568.100 7396454.904 10 0 60741 54900.00000 0 13997728.533 -18639297.480 10382310.268 10 0 60741 55800.00000 0 13265578.815 -17371407.565 13166705.030 10 0 60741 56700.00000 0 12523047.248 -15743797.643 15695595.055 10 0 60741 57600.00000 0 11826860.524 -13783430.546 17919883.340 10 0 60741 58500.00000 0 11228699.097 -11529429.476 19796371.387 10 0 60741 59400.00000 0 10772909.011 -9031675.760 21288596.877 10 0 60741 60300.00000 0 10494537.635 -6348964.797 22367541.723 10 0 60741 61200.00000 0 10417776.095 -3546795.774 23012196.977 10 0 60741 62100.00000 0 10554874.145 -694885.911 23209973.775 10 0 60741 63000.00000 0 10905573.558 2135488.551 22956952.340 10 0 60741 63900.00000 0 11457084.419 4874215.141 22257963.972 10 0 60741 64800.00000 0 12184606.029 7455019.459 21126504.030 10 0 60741 65700.00000 0 13052371.327 9817980.563 19584476.996 10 0 60741 66600.00000 0 14015171.676 11911783.332 17661777.854 10 0 60741 67500.00000 0 15020298.500 13695614.465 15395717.166 10 0 60741 68400.00000 0 16009820.552 15140623.416 12830300.296 10 0 60741 69300.00000 0 16923101.013 16230887.534 10015374.259 10 0 60741 70200.00000 0 17699448.226 16963841.458 7005658.471 10 0 60741 71100.00000 0 18280787.799 17350153.251 3859678.195 10 0 60741 72000.00000 0 18614242.589 17413053.174 638621.733 10 0 60741 72900.00000 0 18654510.706 17187144.171 -2594855.843 10 0 60741 73800.00000 0 18365940.101 16716745.248 -5777858.423 10 0 60741 74700.00000 0 17724211.102 16053838.747 -8848479.246 10 0 60741 75600.00000 0 16717554.884 15255709.350 -11747011.161 10 0 60741 76500.00000 0 15347455.660 14382375.685 -14417112.419 10 0 60741 77400.00000 0 13628806.293 13493923.987 -16806904.733 10 0 60741 78300.00000 0 11589510.246 12647857.182 -18869981.932 10 0 60741 79200.00000 0 9269546.135 11896571.742 -20566309.661 10 0 60741 80100.00000 0 6719533.731 11285068.920 -21862998.865 10 0 60741 81000.00000 0 3998861.049 10848996.644 -22734938.638 10 0 60741 81900.00000 0 1173450.293 10613104.179 -23165276.850 10 0 60741 82800.00000 0 -1686744.708 10590173.969 -23145739.975 10 0 60741 83700.00000 0 -4510406.050 10780474.931 -22676786.721 10 0 60741 84600.00000 0 -7227574.200 11171759.527 -21767593.067 10 0 60741 85500.00000 0 -9772313.107 11739804.133 -20435869.482 10 0 60742 0.00000 0 -12085208.167 12449469.527 -18707514.280 10 0 60742 900.00000 0 -14115595.588 13256237.033 -16616108.849 10 0 60742 1800.00000 0 -15823428.659 14108154.685 -14202266.811 10 0 60742 2700.00000 0 -17180708.577 14948112.814 -11512846.380 10 0 60742 3600.00000 0 -18172418.332 15716352.545 -8600043.059 10 0 60742 4500.00000 0 -18796923.097 16353102.020 -5520379.137 10 0 60742 5400.00000 0 -19065821.330 16801229.363 -2333609.431 10 0 60742 6300.00000 0 -19003253.805 17008800.625 898435.687 10 0 60742 7200.00000 0 -18644700.473 16931434.743 4113047.588 10 0 60742 8100.00000 0 -18035316.415 16534356.039 7247853.822 10 0 60742 9000.00000 0 -17227877.421 15794057.295 10242026.119 10 0 60742 9900.00000 0 -16280422.043 14699502.778 13037458.495 10 0 60742 10800.00000 0 -15253689.581 13252819.770 15579892.653 10 0 60742 11700.00000 0 -14208461.905 11469448.499 17819969.009 10 0 60742 12600.00000 0 -13202920.955 9377743.026 19714183.119 10 0 60742 13500.00000 0 -12290132.924 7018038.412 21225729.236 10 0 60742 14400.00000 0 -11515764.748 4441221.716 22325214.962 10 0 60742 15300.00000 0 -10916128.762 1706864.972 22991233.317 10 0 60742 16200.00000 0 -10516637.572 -1119003.535 23210781.327 10 0 60742 17100.00000 0 -10330734.112 -3966398.332 22979516.978 10 0 60742 18000.00000 0 -10359342.007 -6764043.470 22301849.335 10 0 60742 18900.00000 0 -10590859.622 -9442097.078 21190859.690 10 0 60742 19800.00000 0 -11001698.470 -11934821.343 19668054.653 10 0 60742 20700.00000 0 -11557343.786 -14183087.446 17762955.286 10 0 60742 21600.00000 0 -12213893.028 -16136611.593 15512529.500 10 0 60742 22500.00000 0 -12920007.838 -17755829.209 12960478.020 10 0 60742 23400.00000 0 -13619197.237 -19013329.213 10156387.253 10 0 60742 24300.00000 0 -14252335.608 -19894788.578 7154765.202 10 0 60742 25200.00000 0 -14760308.700 -20399368.308 4013979.107 10 0 60742 26100.00000 0 -15086675.174 -20539554.604 795115.776 10 0 60742 27000.00000 0 -15180230.268 -20340452.521 -2439212.687 10 0 60742 27900.00000 0 -14997362.165 -19838562.619 -5626093.775 10 0 60742 28800.00000 0 -14504100.307 -19080093.153 -8703545.320 10 0 60742 29700.00000 0 -13677768.061 -18118880.030 -11611727.271 10 0 60742 30600.00000 0 -12508168.924 -17014003.358 -14294110.133 10 0 60742 31500.00000 0 -10998255.395 -15827202.140 -16698576.721 10 0 60742 32400.00000 0 -9164251.620 -14620196.968 -18778435.521 10 0 60742 33300.00000 0 -7035224.017 -13452034.060 -20493325.946 10 0 60742 34200.00000 0 -4652117.400 -12376562.774 -21809998.191 10 0 60742 35100.00000 0 -2066296.449 -11440152.610 -22702953.087 10 0 60742 36000.00000 0 662347.038 -10679745.245 -23154930.261 10 0 60742 36900.00000 0 3467642.699 -10121322.790 -23157235.897 10 0 60742 37800.00000 0 6279652.991 -9778855.676 -22709904.511 10 0 60742 38700.00000 0 9027343.694 -9653773.404 -21821692.221 10 0 60742 39600.00000 0 11641303.363 -9734979.402 -20509902.116 10 0 60742 40500.00000 0 14056399.688 -9999408.518 -18800045.330 10 0 60742 41400.00000 0 16214263.400 -10413103.025 -16725344.427 10 0 60742 42300.00000 0 18065497.446 -10932761.373 -14326088.595 10 0 60742 43200.00000 0 19571520.590 -11507694.202 -11648852.866 10 0 60742 44100.00000 0 20705969.665 -12082105.088 -8745596.172 10 0 60742 45000.00000 0 21455602.962 -12597599.832 -5672655.424 10 0 60742 45900.00000 0 21820667.967 -12995818.470 -2489654.872 10 0 60742 46800.00000 0 21814718.933 -13221078.928 741648.333 10 0 60742 47700.00000 0 21463892.708 -13222920.654 3958560.019 10 0 60742 48600.00000 0 20805673.834 -12958440.658 7098663.147 10 0 60742 49500.00000 0 19887201.321 -12394323.037 10101026.698 10 0 60742 50400.00000 0 18763188.580 -11508475.822 12907385.794 10 0 60742 51300.00000 0 17493544.158 -10291205.459 15463270.218 10 0 60742 52200.00000 0 16140793.319 -8745878.493 17719059.568 10 0 60742 53100.00000 0 14767408.730 -6889041.475 19630944.756 10 0 60742 54000.00000 0 13433162.147 -4749992.702 21161777.465 10 0 60742 54900.00000 0 12192608.013 -2369822.136 22281791.402 10 0 60742 55800.00000 0 11092804.246 200041.936 22969181.572 10 0 60742 56700.00000 0 10171365.513 2899720.528 23210530.508 10 0 60742 57600.00000 0 9454930.382 5663128.780 23001073.203 10 0 60742 58500.00000 0 8958106.513 8420485.975 22344795.374 10 0 60742 59400.00000 0 8682938.055 11100987.528 21254362.804 10 0 60742 60300.00000 0 8618917.653 13635528.826 19750882.486 10 0 60742 61200.00000 0 8743542.675 15959368.225 17863499.562 10 0 60742 62100.00000 0 9023392.350 18014618.776 15628837.073 10 0 60742 63000.00000 0 9415680.544 19752465.026 13090288.704 10 0 60742 63900.00000 0 9870218.633 21135012.367 10297177.704 10 0 60742 64800.00000 0 10331705.394 22136691.636 7303798.004 10 0 60742 65700.00000 0 10742246.724 22745160.125 4168356.091 10 0 60742 66600.00000 0 11043997.934 22961661.325 951834.523 10 0 60742 67500.00000 0 11181815.970 22800828.611 -2283200.273 10 0 60742 68400.00000 0 11105808.254 22289941.607 -5473821.993 10 0 60742 69300.00000 0 10773669.181 21467667.272 -8557975.483 10 0 60742 70200.00000 0 10152704.295 20382339.612 -11475689.966 10 0 60742 71100.00000 0 9221455.523 19089851.443 -14170250.098 10 0 60742 72000.00000 0 7970857.856 17651247.995 -16589301.411 10 0 60742 72900.00000 0 6404877.891 16130124.500 -18685868.373 10 0 60742 73800.00000 0 4540606.604 14589937.906 -20419265.246 10 0 60742 74700.00000 0 2407801.840 13091346.053 -21755882.318 10 0 60742 75600.00000 0 47899.101 11689686.066 -22669832.780 10 0 60742 76500.00000 0 -2487468.536 10432697.422 -23143448.417 10 0 60742 77400.00000 0 -5138380.182 9358584.470 -23167615.256 10 0 60742 78300.00000 0 -7838887.570 8494498.656 -22741943.442 10 0 60742 79200.00000 0 -10519532.824 7855502.902 -21874768.698 10 0 60742 80100.00000 0 -13110019.560 7444060.326 -20582985.795 10 0 60742 81000.00000 0 -15541927.131 7250067.508 -18891717.523 10 0 60742 81900.00000 0 -17751356.062 7251429.823 -16833825.616 10 0 60742 82800.00000 0 -19681395.500 7415153.718 -14449272.968 10 0 60742 83700.00000 0 -21284310.888 7698909.281 -11784349.222 10 0 60742 84600.00000 0 -22523361.532 8052996.802 -8890774.410 10 0 60742 85500.00000 0 -23374173.036 8422634.092 -5824697.705 99